Kalundborg Airport


Codes: EKKL/
Name: Kalundborg Airport
City: Kalundborg
Country: Denmark
Elevation: 1 ft.

Photos at Kalundborg Airport


   Photos courtesy of SpottingLog. You can add your own sightings and photos by signing up for a free trial today.



No photos found.

Weather at Kalundborg Airport


Time (UTC)DescriptionTempratureWindCloud coverageVisibilityPressureHumidity
19-Apr-2024 06:00Light Rain4°C13 mph, N100%0m1004hPa85%
19-Apr-2024 09:00Light Rain4°C16 mph, E100%503m1002hPa91%
19-Apr-2024 12:00Light Rain4°C20 mph, N100%0m1002hPa97%
19-Apr-2024 15:00Light Rain6°C16 mph, E100%10000m1003hPa78%
19-Apr-2024 18:00Light Rain6°C18 mph, NE98%10000m1006hPa77%
19-Apr-2024 21:00Light Rain5°C13 mph, NE89%10000m1009hPa80%
20-Apr-2024 00:00Light Snow3°C11 mph, NE73%10000m1011hPa77%
20-Apr-2024 03:00Scattered Clouds3°C11 mph, NE46%10000m1013hPa73%
20-Apr-2024 06:00Scattered Clouds4°C7 mph, NE34%10000m1016hPa65%
20-Apr-2024 09:00Few Clouds6°C7 mph, N22%10000m1018hPa57%
20-Apr-2024 12:00Few Clouds6°C9 mph, NW19%10000m1019hPa56%
20-Apr-2024 15:00Few Clouds7°C9 mph, NW14%10000m1020hPa58%
20-Apr-2024 18:00Broken Clouds5°C11 mph, NW53%10000m1022hPa76%
20-Apr-2024 21:00Few Clouds6°C11 mph, NW17%10000m1024hPa69%
21-Apr-2024 00:00Scattered Clouds6°C11 mph, NE42%10000m1025hPa59%
21-Apr-2024 03:00Overcast Clouds6°C11 mph, NE100%10000m1026hPa57%
21-Apr-2024 06:00Overcast Clouds6°C11 mph, NE100%10000m1027hPa61%
21-Apr-2024 09:00Broken Clouds6°C13 mph, NE80%10000m1029hPa49%
21-Apr-2024 12:00Overcast Clouds6°C11 mph, NE90%10000m1029hPa49%
21-Apr-2024 15:00Overcast Clouds6°C13 mph, NE100%10000m1029hPa50%
21-Apr-2024 18:00Overcast Clouds6°C11 mph, NE100%10000m1029hPa55%
21-Apr-2024 21:00Overcast Clouds6°C11 mph, NE99%10000m1029hPa55%
22-Apr-2024 00:00Overcast Clouds4°C9 mph, NE100%10000m1029hPa65%
22-Apr-2024 03:00Light Rain2°C9 mph, E89%10000m1028hPa85%
22-Apr-2024 06:00Broken Clouds3°C11 mph, E51%10000m1029hPa71%
22-Apr-2024 09:00Scattered Clouds4°C9 mph, NE50%10000m1028hPa65%
22-Apr-2024 12:00Scattered Clouds5°C9 mph, N50%10000m1026hPa59%
22-Apr-2024 15:00Few Clouds5°C7 mph, N20%10000m1025hPa61%
22-Apr-2024 18:00Few Clouds4°C4 mph, N11%10000m1024hPa61%
22-Apr-2024 21:00Clear Sky3°C2 mph, NE4%10000m1024hPa61%
23-Apr-2024 00:00Scattered Clouds3°C2 mph, W29%10000m1023hPa62%
23-Apr-2024 03:00Few Clouds4°C7 mph, W17%10000m1022hPa67%
23-Apr-2024 06:00Few Clouds5°C7 mph, W12%10000m1021hPa64%
23-Apr-2024 09:00Clear Sky5°C9 mph, W3%10000m1021hPa69%
23-Apr-2024 12:00Clear Sky6°C9 mph, W2%10000m1019hPa61%
23-Apr-2024 15:00Clear Sky7°C9 mph, SW3%10000m1017hPa59%
23-Apr-2024 18:00Scattered Clouds8°C18 mph, W39%10000m1015hPa62%
23-Apr-2024 21:00Overcast Clouds7°C22 mph, SW100%10000m1013hPa69%
24-Apr-2024 00:00Light Rain5°C25 mph, SW100%10000m1011hPa92%
24-Apr-2024 03:00Light Rain6°C13 mph, W100%10000m1009hPa70%